Location: Voyageurs National Park
(48.5020°N, 92.9292°W)
Time: 21:53:26
(UTC-06:00)

CZ-4C R/B - Pass Details

Date: 19 January 2018
Orbit: 697 x 1305 km, 63.4° (Epoch: 24 February)

Event Time Altitude Azimuth Distance (km) Brightness Sun altitude
Exits shadow 06:13:40 23° 290° (WNW) 2,238 3.8 -16.5°
Maximum altitude 06:17:18 36° 244° (WSW) 1,819 3.5 -15.9°
Drops below altitude 10° 06:24:22 10° 181° (S) 3,270 5.4 -14.7°
Sets 06:27:31 0° 174° (S) 4,266 6.1 -14.2°
